FW7196 Weather Reports


time (UTC)temp
C
wind
direction
speed
KPH
gust
KPH
rain 1hr
cm
rain 24hr
cm
rain mn
cm
humidity
%
barometer
mb
20260503234600 7 0 0.0 0.0 0.00 0.00 0.00 53 1007.4
20260503233044 7 0 0.0 4.8 0.00 0.00 0.00 51 1007.4
20260503231537 7 82 0.0 3.2 0.00 0.00 0.00 50 1007.4
20260503230038 7 0 0.0 4.8 0.00 0.00 0.00 48 1007.4
20260503224536 8 0 1.6 6.4 0.00 0.00 0.00 47 1007.3
20260503223039 8 0 0.0 12.9 0.00 0.00 0.00 47 1007.3
20260503221539 8 339 1.6 17.7 0.00 0.00 0.00 46 1007.3
20260503220036 8 0 0.0 8.0 0.00 0.00 0.00 48 1007.1
20260503214540 8 7 3.2 8.0 0.00 0.00 0.00 48 1007.1
20260503213038 7 330 3.2 17.7 0.00 0.00 0.00 48 1007.1
20260503211539 7 0 1.6 12.9 0.00 0.00 0.00 49 1007.1
20260503210036 7 334 3.2 8.0 0.00 0.00 0.00 46 1007.0
20260503204536 7 301 1.6 14.5 0.00 0.00 0.00 46 1007.1
20260503203052 8 87 4.8 17.7 0.00 0.00 0.00 45 1007.0
20260503201537 8 340 3.2 19.3 0.00 0.00 0.00 44 1006.9
20260503200039 8 353 3.2 12.9 0.00 0.00 0.00 45 1006.7
20260503194540 8 306 6.4 17.7 0.00 0.00 0.00 41 1006.9
20260503193037 8 0 3.2 14.5 0.00 0.00 0.00 42 1006.9
20260503191538 8 150 6.4 20.9 0.00 0.00 0.00 41 1007.0
20260503190039 8 265 3.2 16.1 0.00 0.00 0.00 44 1007.0
20260503184539 8 313 3.2 17.7 0.00 0.00 0.00 43 1006.9
20260503183040 8 225 3.2 12.9 0.00 0.00 0.00 44 1007.0
20260503181539 8 324 3.2 14.5 0.00 0.00 0.00 44 1006.7
20260503180041 8 319 3.2 6.4 0.00 0.00 0.00 45 1006.6
20260503174537 8 315 4.8 19.3 0.00 0.00 0.00 42 1006.7
20260503174031 8 26 1.6 11.3 0.00 0.00 0.00 42 1006.6
20260503173522 9 247 1.6 11.3 0.00 0.00 0.00 44 1006.6
20260503173039 8 338 3.2 12.9 0.00 0.00 0.00 42 1006.5
20260503173020 9 338 1.6 11.3 0.00 0.00 0.00 42 1006.5
20260503171918 9 313 4.8 11.3 0.00 0.00 0.00 41 1006.7
20260503171545 8 313 4.8 12.9 0.00 0.00 0.00 41 1006.6
20260503170717 9 8 3.2 6.4 0.00 0.00 0.00 44 1006.6
20260503081537 2 0 0.0 0.0 0.00 0.56 0.00 92 1008.7
20260503071551 2 0 0.0 0.0 0.00 0.58 0.00 93 1009.0
20260503054549 2 0 0.0 0.0 0.00 0.89 0.00 93 1009.7
20260503053033 2 0 0.0 0.0 0.00 0.89 0.00 93 1009.8
20260503051537 2 0 0.0 0.0 0.00 0.89 0.00 92 1010.1
20260503050040 2 0 0.0 0.0 0.00 0.89 0.00 92 1010.1
20260503044536 2 0 0.0 0.0 0.00 0.89 0.00 90 1010.2
20260503043034 2 0 0.0 0.0 0.00 0.89 0.00 89 1010.4
20260503041539 2 0 0.0 0.0 0.00 0.89 0.00 89 1010.6
20260503040049 3 0 0.0 0.0 0.00 0.89 0.00 88 1010.7
20260503034535 3 0 0.0 0.0 0.00 0.89 0.89 88 1010.8
20260503033038 3 0 0.0 0.0 0.00 0.89 0.89 88 1010.8
20260503031536 3 0 0.0 0.0 0.00 0.89 0.89 88 1010.9
20260503030045 3 0 0.0 0.0 0.00 0.89 0.89 87 1011.0
20260503024533 4 0 0.0 0.0 0.00 0.89 0.89 86 1011.0
20260503023036 5 0 0.0 0.0 0.00 0.89 0.89 85 1011.2
20260503021535 5 0 0.0 0.0 0.00 0.89 0.89 85 1011.2
20260503020037 5 0 0.0 0.0 0.00 0.89 0.89 84 1011.3
20260503014534 6 0 0.0 0.0 0.00 0.89 0.89 82 1011.4
20260503013038 6 0 0.0 0.0 0.00 0.89 0.89 81 1011.4
20260503011535 6 343 1.6 4.8 0.00 0.89 0.89 81 1011.2
20260503010037 7 0 0.0 4.8 0.00 0.89 0.89 80 1011.0
20260503004537 7 0 0.0 3.2 0.00 0.89 0.89 79 1010.8
20260503003039 7 0 0.0 1.6 0.00 0.89 0.89 84 1010.6
20260503001546 7 353 0.0 3.2 0.00 0.89 0.89 82 1010.1
20260503000035 7 134 0.0 4.8 0.00 0.89 0.89 79 1009.7